Location: Heppenheim
(49.6410°N, 8.6370°E)
Time: 07:19:20
(UTC+01:00)

ISS - Visible Passes

Search period start: 19 February 2019 00:00
Search period end: 01 March 2019 00:00
Orbit: 403 x 411 km, 51.6° (Epoch: 19 February)

Date Brightness Start Highest point End Pass type
(mag) Time Alt. Az. Time Alt. Az. Time Alt. Az.
23 Feb -0.9 06:34:02 10° S 06:36:10 16° SE 06:38:19 10° E visible
25 Feb -2.1 06:26:27 10° SSW 06:29:22 31° SSE 06:32:18 10° E visible
26 Feb -1.5 05:35:38 11° S 05:38:01 20° SE 05:40:28 10° E visible
27 Feb -1.0 04:46:29 12° SE 04:46:41 13° SE 04:48:10 10° ESE visible
27 Feb -3.3 06:19:27 10° SW 06:22:39 57° SSE 06:25:53 10° ENE visible
28 Feb -2.7 05:29:55 26° SSW 05:31:10 37° SSE 05:34:14 10° E visible
